Jacksonville, FL

10:39 AM EST on December 18, 2017 (GMT -0500)
Jacksonville International

Weather History for KJAX - February, 2013

Change the Weather History Date:

Saturday, February 23, 2013

  Actual Average Record
Temperature  
Mean Temperature 73 °F 58 °F  
Max Temperature 83 °F 70 °F 85 °F (1962)
Min Temperature 62 °F 46 °F 25 °F (1978)
Degree Days  
Heating Degree Days 0 8  
Month to date heating degree days 221 219  
Since 1 July heating degree days 878 1095  
Cooling Degree Days 8 1  
Month to date cooling degree days 29 18  
Year to date cooling degree days 70 29  
Growing Degree Days 22 (Base 50)    
Moisture  
Dew Point 63 °F    
Average Humidity 76    
Maximum Humidity 100    
Minimum Humidity 51    
Precipitation  
Precipitation 0.51 in 0.12 in 1.59 in (1966)
Month to date precipitation 0.78 2.58  
Year to date precipitation 1.79 5.88  
Snow  
Snow 0.00 in 0.00 in T in (1989)
Month to date snowfall 0.0 0.0  
Since 1 July snowfall 0.0 T  
Snow Depth 0.00 in    
Sea Level Pressure  
Sea Level Pressure 29.94 in    
Wind  
Wind Speed 10 mph (SW)    
Max Wind Speed 24 mph    
Max Gust Speed 32 mph    
Visibility 8 miles    
Events Rain , Thunderstorm    
T = Trace of Precipitation, MM = Missing Value Source: NWS Daily Summary

Daily Weather History Graph

Daily Weather History Graph

Search for Another Location

Airport or City:

Trip Planner

Search our weather history database for the weather conditions in past years. The results will help you decide how hot, cold, wet, or windy it might be!

Date:

Astronomy

Feb. 23, 2013 Rise Set
Actual Time 6:59 AM EST 6:21 PM EST
Civil Twilight 6:34 AM EST 6:45 PM EST
Nautical Twilight 6:06 AM EST 7:13 PM EST
Astronomical Twilight 5:39 AM EST 7:41 PM EST
Moon 4:34 PM EST (2/23) 5:15 AM EST (2/23)
Length of Visible Light 12h 10m
Length of Day
11h 22m
Waxing Gibbous, 95% of the Moon is Illuminated
Feb 23
Waxing Gibbous
Feb 25
Full
Mar 4
Last Quarter
Mar 11
New
Mar 19
First Quarter

Hourly Weather History & Observations

Time (EST) Temp. Heat Index Dew Point Humidity Pressure Visibility Wind Dir Wind Speed Gust Speed Precip Events Conditions
12:14 AM 62.6 °F - 62.6 °F 100% 30.00 in 10.0 mi Calm Calm - N/A   Overcast
12:51 AM 62.6 °F - 60.8 °F 94% 29.99 in 10.0 mi Variable 3.5 mph - N/A   Mostly Cloudy
12:56 AM 63.0 °F - 62.1 °F 97% 29.99 in 10.0 mi North 3.5 mph - N/A   Mostly Cloudy
1:56 AM 63.0 °F - 62.1 °F 97% 29.98 in 10.0 mi Calm Calm - N/A   Overcast
2:56 AM 63.0 °F - 62.1 °F 97% 29.96 in 8.0 mi Calm Calm - N/A   Overcast
3:25 AM 62.6 °F - 62.6 °F 100% 29.95 in 8.0 mi Calm Calm - N/A   Mostly Cloudy
3:52 AM 62.6 °F - 62.6 °F 100% 29.94 in 6.0 mi South 3.5 mph - N/A   Mostly Cloudy
3:56 AM 63.0 °F - 62.1 °F 97% 29.94 in 6.0 mi South 3.5 mph - N/A   Mostly Cloudy
4:56 AM 63.0 °F - 62.1 °F 97% 29.94 in 6.0 mi SSW 4.6 mph - N/A   Mostly Cloudy
5:36 AM 64.4 °F - 62.6 °F 94% 29.94 in 5.0 mi SSW 5.8 mph - N/A   Mostly Cloudy
5:38 AM 64.4 °F - 64.4 °F 100% 29.94 in 5.0 mi SSW 5.8 mph - N/A   Mostly Cloudy
5:52 AM 64.4 °F - 64.4 °F 100% 29.94 in 7.0 mi SW 5.8 mph - N/A   Mostly Cloudy
5:56 AM 64.9 °F - 64.0 °F 97% 29.95 in 7.0 mi SW 5.8 mph - N/A   Mostly Cloudy
6:15 AM 64.4 °F - 64.4 °F 100% 29.95 in 7.0 mi SW 4.6 mph - N/A   Overcast
6:56 AM 64.9 °F - 64.0 °F 97% 29.96 in 7.0 mi SW 6.9 mph - N/A   Overcast
7:20 AM 64.4 °F - 64.4 °F 100% 29.96 in 7.0 mi SW 8.1 mph - N/A   Overcast
7:56 AM 66.9 °F - 66.0 °F 97% 29.97 in 9.0 mi SSW 8.1 mph - N/A   Mostly Cloudy
8:56 AM 68.0 °F - 66.0 °F 93% 29.97 in 10.0 mi SSW 15.0 mph 21.9 mph N/A   Mostly Cloudy
9:17 AM 68.0 °F - 66.2 °F 94% 29.96 in 10.0 mi SSW 15.0 mph 23.0 mph N/A   Mostly Cloudy
9:43 AM 68.0 °F - 64.4 °F 88% 29.95 in 10.0 mi SSW 17.3 mph 24.2 mph N/A   Mostly Cloudy
9:56 AM 68.0 °F - 64.9 °F 90% 29.95 in 10.0 mi SSW 12.7 mph 21.9 mph N/A   Mostly Cloudy
10:38 AM 69.8 °F - 64.4 °F 83% 29.95 in 10.0 mi SW 19.6 mph 25.3 mph N/A   Mostly Cloudy
10:56 AM 70.0 °F - 64.9 °F 84% 29.95 in 10.0 mi SSW 21.9 mph 27.6 mph N/A   Mostly Cloudy
11:56 AM 77.2 °F - 64.9 °F 66% 29.94 in 10.0 mi SW 20.7 mph - N/A   Mostly Cloudy
12:56 PM 78.1 °F - 64.9 °F 64% 29.93 in 10.0 mi SW 19.6 mph 27.6 mph N/A   Mostly Cloudy
1:56 PM 80.1 °F 81.2 °F 62.1 °F 54% 29.92 in 10.0 mi WSW 17.3 mph 23.0 mph N/A   Mostly Cloudy
2:56 PM 81.0 °F 81.7 °F 61.0 °F 50% 29.89 in 10.0 mi West 12.7 mph - N/A   Mostly Cloudy
3:56 PM 81.0 °F 81.9 °F 62.1 °F 52% 29.86 in 10.0 mi WSW 9.2 mph - N/A   Mostly Cloudy
4:56 PM 81.0 °F 81.6 °F 60.1 °F 49% 29.85 in 10.0 mi SSW 8.1 mph - N/A   Mostly Cloudy
5:56 PM 79.0 °F - 62.1 °F 56% 29.86 in 10.0 mi SSW 9.2 mph - N/A   Mostly Cloudy
6:56 PM 77.0 °F - 63.0 °F 62% 29.88 in 10.0 mi SSW 9.2 mph - N/A   Mostly Cloudy
7:56 PM 75.9 °F - 64.9 °F 69% 29.88 in 10.0 mi SW 10.4 mph - N/A   Overcast
8:38 PM 66.2 °F - 62.6 °F 88% 29.93 in 7.0 mi NNW 18.4 mph 27.6 mph 0.00 in Rain Rain
8:46 PM 66.2 °F - 64.4 °F 94% 29.93 in 1.0 mi NNW 13.8 mph 27.6 mph 0.01 in Rain , Thunderstorm Heavy Thunderstorms and Rain
8:56 PM 64.9 °F - 63.0 °F 93% 29.94 in 1.5 mi NNW 13.8 mph 21.9 mph 0.18 in Rain , Thunderstorm Heavy Thunderstorms and Rain
9:15 PM 62.6 °F - 60.8 °F 94% 29.95 in 1.5 mi NW 15.0 mph - 0.17 in Rain , Thunderstorm Light Thunderstorms and Rain
9:24 PM 62.6 °F - 60.8 °F 94% 29.94 in 3.0 mi NW 10.4 mph - 0.22 in Rain , Thunderstorm Heavy Thunderstorms and Rain
9:40 PM 62.6 °F - 60.8 °F 94% 29.95 in 3.0 mi NNW 6.9 mph - 0.29 in Rain , Thunderstorm Thunderstorms and Rain
9:46 PM 62.6 °F - 60.8 °F 94% 29.96 in 3.0 mi WNW 4.6 mph - 0.30 in Rain Light Rain
9:56 PM 62.1 °F - 60.1 °F 93% 29.95 in 10.0 mi WNW 3.5 mph - 0.30 in   Overcast
10:56 PM 62.1 °F - 60.1 °F 93% 29.92 in 10.0 mi SE 5.8 mph - 0.03 in   Overcast
11:15 PM 62.6 °F - 60.8 °F 94% 29.94 in 10.0 mi Calm Calm - N/A   Overcast
11:25 PM 62.6 °F - 60.8 °F 94% 29.94 in 10.0 mi Calm Calm - N/A   Overcast
11:56 PM 62.1 °F - 60.1 °F 93% 29.91 in 10.0 mi ENE 9.2 mph - N/A   Overcast